[[{"header":{"parameterUnit":"m.s-1","parameterCategory":1,"la1":30.2991,"la2":30.254,"lo1":-89.0895,"lo2":-89.0444,"dx":0.0017,"dy":0.0017,"nx":28,"ny":28,"refTime":"2022-12-29T09:00:00:Z","depth":0,"parameterNumber":2,"parameterNumberName":"U-component_of_WINDS"},"data":[0,0,0,0,0,0,0,0,0,0,0,0,0,0,0,0,0,0,0,0,0,0,0,0,0,0,0,0,0,0,0,0,0,0,0,0,0,0,0,0,0,0,0,0,0,0,0,0,0,0,0,0,0,0,0,0,0,0,-5.2179,-5.2179,0,-5.2225,-5.2226,-5.2226,-5.218,-5.2178,-5.2177,-5.2175,-5.2219,-5.2222,-5.2225,0,0,0,0,0,0,0,0,0,0,0,0,0,-5.2049,-5.2051,-5.2179,-5.2179,-5.218,-5.2225,-5.2226,-5.2226,-5.2181,-5.2178,-5.2176,-5.2174,-5.2218,-5.2222,-5.2225,0,0,0,0,0,0,0,0,0,0,0,0,0,-5.2101,-5.2052,-5.2178,-5.2162,-5.2162,-5.2225,-5.2226,-5.2227,-5.2181,-5.2178,-5.2176,-5.2173,-5.2217,-5.2221,-5.2225,-5.2306,0,0,-5.2238,-5.224,0,0,0,0,0,0,0,0,-5.2098,-5.2106,-5.2164,-5.2164,-5.2163,-5.2194,-5.2196,-5.2253,-5.2182,-5.2173,-5.2175,-5.2172,-5.2213,-5.2217,-5.2232,-5.2308,-5.231,-5.2239,-5.2241,-5.2243,-5.2245,0,0,0,0,0,0,0,-5.2095,-5.2104,-5.2197,-5.2165,-5.2164,-5.2153,-5.2157,-5.2207,-5.2208,-5.2174,-5.2171,-5.2177,-5.2212,-5.2228,-5.2232,-5.2311,-5.2239,-5.2243,-5.2245,-5.2247,-5.2457,-5.246,0,0,0,0,0,0,-5.2093,-5.2101,-5.2195,-5.2198,-5.2123,-5.2157,-5.2162,-5.2187,-5.2207,-5.2207,-5.2179,-5.2175,-5.2222,-5.2228,-5.2234,-5.2329,-5.2243,-5.2247,-5.225,-5.2454,-5.2457,-5.2461,0,0,0,0,0,0,-5.209,-5.2102,-5.2194,-5.2149,-5.216,-5.2162,-5.219,-5.2189,-5.2205,-5.2211,-5.2211,-5.2196,-5.222,-5.2228,-5.2289,-5.233,-5.2249,-5.2253,-5.245,-5.2455,-5.2459,-5.2521,0,0,0,0,0,0,-5.2087,-5.2101,-5.2132,-5.215,-5.2162,-5.2248,-5.2193,-5.2192,-5.2213,-5.2207,-5.2226,-5.2227,-5.2218,-5.2283,-5.2293,-5.2335,-5.2256,-5.2446,-5.2452,-5.2458,-5.2515,-5.2527,-5.2537,0,0,0,0,0,-5.2082,-5.2146,-5.2134,-5.2145,-5.2201,-5.2251,-5.2257,-5.2248,-5.2216,-5.2247,-5.2252,-5.2226,-5.2325,-5.2289,-5.2301,-5.2344,-5.2444,-5.2451,-5.2457,-5.251,-5.2525,-5.2537,0,0,0,0,0,0,-5.213,-5.2148,-5.2134,-5.2206,-5.2228,-5.2243,-5.228,-5.2263,-5.2293,-5.2286,-5.2272,-5.2277,-5.2341,-5.2349,-5.2309,-5.2424,-5.2379,-5.2389,-5.2416,-5.243,-5.244,-5.2436,-5.226,0,0,0,0,0,-5.215,-5.219,-5.2203,-5.2265,-5.2277,-5.2278,-5.2299,-5.229,-5.2311,-5.2319,-5.2328,-5.2349,-5.2384,-5.2408,-5.2441,-5.2518,-5.2521,-5.2554,-5.2565,-5.2574,-5.2581,-5.2622,-5.2637,-5.2483,-5.2483,-5.2483,0,0,-5.2189,-5.2204,-5.223,-5.2275,-5.2291,-5.2332,-5.2285,-5.233,-5.236,-5.2326,-5.2384,-5.2392,-5.2414,-5.2483,-5.2514,-5.2492,-5.2625,-5.2582,-5.2589,-5.2591,-5.2631,-5.2645,-5.2658,-5.2487,-5.2487,-5.2486,0,0,-5.2282,-5.2298,-5.2351,-5.2369,-5.2394,-5.2395,-5.2408,-5.2427,-5.2431,-5.249,-5.2466,-5.2502,-5.2564,-5.2581,-5.2598,-5.2702,-5.2679,-5.2713,-5.2769,-5.281,-5.2822,-5.2833,-5.2869,-5.2882,-5.2721,-5.2721,-5.2721,0,-5.2327,-5.2388,-5.2381,-5.2428,-5.2449,-5.2423,-5.2477,-5.2494,-5.2529,-5.2543,-5.2519,-5.2598,-5.2611,-5.2684,-5.271,-5.2725,-5.2739,-5.2709,-5.2821,-5.2832,-5.2842,-5.2876,-5.2889,-5.2725,-5.2725,-5.2724,-5.2724,0,-5.2442,-5.2486,-5.2527,-5.2562,-5.2588,-5.2639,-5.2639,-5.2666,-5.2657,-5.266,-5.2721,-5.2737,-5.2773,-5.2791,-5.2781,-5.2864,-5.2849,-5.2824,-5.2777,-5.286,-5.2892,-5.2905,-5.2731,-5.2729,-5.2728,-5.2727,0,0,-5.2561,-5.2596,-5.261,-5.2627,-5.2655,-5.2688,-5.2739,-5.2776,-5.28,-5.2826,-5.2867,-5.2922,-5.29,-5.2919,-5.2912,-5.2948,-5.3029,-5.2918,-5.2918,-5.2936,-5.312,-5.3137,-5.3152,-5.3016,-5.3019,-5.3021,-5.3118,0,-5.2653,-5.2741,-5.2738,-5.282,-5.286,-5.2838,-5.2882,-5.2904,-5.291,-5.2945,-5.2951,-5.299,-5.2958,-5.297,-5.3005,-5.3011,-5.3065,-5.3005,-5.3053,-5.3054,-5.3044,-5.3169,-5.3187,-5.3277,-5.313,-5.3132,-5.3134,0,-5.2771,-5.2803,-5.289,-5.2914,-5.2931,-5.297,-5.3005,-5.304,-5.3065,-5.3067,-5.3091,-5.3078,-5.313,-5.3086,-5.3156,-5.3115,-5.3136,-5.3142,-5.3146,-5.3147,-5.3096,-5.3171,-5.3306,-5.3318,-5.3154,-5.3152,-5.3151,0,-5.2847,-5.2912,-5.2972,-5.2988,-5.3018,-5.3046,-5.306,-5.3083,-5.3107,-5.3138,-5.3153,-5.319,-5.3209,-5.3238,-5.3236,-5.3204,-5.3307,-5.3263,-5.3309,-5.3309,-5.3328,-5.3326,-5.3465,-5.3346,-5.3346,-5.3346,-5.3345,0,-5.2948,-5.3001,-5.3007,-5.3044,-5.3104,-5.31,-5.3159,-5.317,-5.3192,-5.323,-5.3215,-5.3251,-5.3248,-5.3284,-5.3284,-5.3342,-5.3351,-5.3353,-5.3352,-5.3353,-5.3352,-5.3363,-5.3355,-5.3349,-5.3348,-5.3348,-5.3347,0,-5.304,-5.3047,-5.3111,-5.3136,-5.3144,-5.3187,-5.3208,-5.3243,-5.3249,-5.3298,-5.331,-5.3319,-5.3362,-5.3365,-5.3414,-5.3413,-5.3483,-5.3476,-5.3475,-5.3472,-5.3517,-5.3512,-5.3665,-5.3684,-5.3556,-5.3557,-5.3558,0,-5.3102,-5.3143,-5.3174,-5.3199,-5.3215,-5.3257,-5.3282,-5.3281,-5.3308,-5.3342,-5.3373,-5.3415,-5.3448,-5.3518,-5.3529,-5.3567,-5.3559,-5.361,-5.3564,-5.3564,-5.3557,-5.3553,-5.3557,-5.3618,-5.3619,-5.362,-5.3621,0,-5.3211,-5.3214,-5.3251,-5.329,-5.3321,-5.3352,-5.338,-5.3402,-5.3405,-5.3436,-5.3481,-5.3507,-5.3559,-5.36,-5.3639,-5.3652,-5.3637,-5.3637,-5.3649,-5.3648,-5.3645,-5.3645,-5.3496,-5.3632,-5.3631,-5.363,-5.3629,-5.3629,-5.3289,-5.3325,-5.3353,-5.3395,-5.3418,-5.3445,-5.348,-5.3493,-5.353,-5.3573,-5.3572,-5.3621,-5.3648,-5.3697,-5.3715,-5.3753,-5.3735,-5.3753,-5.3757,-5.3761,-5.3765,-5.3642,-5.376,-5.376,-5.376,-5.376,-5.3759,0,-5.3395,-5.3413,-5.3453,-5.3495,-5.3529,-5.3516,-5.3547,-5.3576,-5.362,-5.3647,-5.3681,-5.3734,-5.3775,-5.3791,-5.3832,-5.386,-5.3854,-5.387,-5.3866,-5.3869,-5.3779,-5.3764,-5.3874,-5.3874,-5.3874,-5.3874,-5.3874,-5.3874,-5.3454,-5.3514,-5.3521,-5.3592,-5.361,-5.3659,-5.3678,-5.3704,-5.3726,-5.3786,-5.3821,-5.3832,-5.3855,-5.3898,-5.3935,-5.3939,-5.3954,-5.3972,-5.3973,-5.3887,-5.3876,-5.3864,-5.385,-5.3976,-5.3976,-5.4059,-5.406,-5.4061]},{"header":{"parameterUnit":"m.s-1","parameterCategory":1,"la1":30.2991,"la2":30.254,"lo1":-89.0895,"lo2":-89.0444,"dx":0.0017,"dy":0.0017,"nx":28,"ny":28,"refTime":"2022-12-29T09:00:00:Z","depth":0,"parameterNumber":3,"parameterNumberName":"V-component_of_WINDS"},"data":[0,0,0,0,0,0,0,0,0,0,0,0,0,0,0,0,0,0,0,0,0,0,0,0,0,0,0,0,0,0,0,0,0,0,0,0,0,0,0,0,0,0,0,0,0,0,0,0,0,0,0,0,0,0,0,0,0,0,2.0575,2.0575,0,2.06,2.06,2.0601,2.0627,2.0627,2.0627,2.0628,2.0649,2.065,2.065,0,0,0,0,0,0,0,0,0,0,0,0,0,2.0548,2.0548,2.0575,2.0575,2.0575,2.06,2.06,2.0601,2.0627,2.0627,2.0627,2.0628,2.0649,2.065,2.065,0,0,0,0,0,0,0,0,0,0,0,0,0,2.0565,2.0548,2.0575,2.0591,2.0593,2.06,2.06,2.0601,2.0627,2.0627,2.0628,2.0628,2.0649,2.0649,2.065,2.0641,0,0,2.0651,2.0651,0,0,0,0,0,0,0,0,2.0564,2.0566,2.0589,2.059,2.0592,2.0611,2.0599,2.0614,2.0626,2.0614,2.0628,2.0628,2.0636,2.0637,2.0641,2.0642,2.0643,2.0651,2.0651,2.0651,2.0651,0,0,0,0,0,0,0,2.0563,2.0565,2.0585,2.0589,2.0591,2.0597,2.06,2.0602,2.0621,2.0615,2.0617,2.062,2.0637,2.064,2.0641,2.0643,2.0651,2.0651,2.0651,2.0652,2.0643,2.0642,0,0,0,0,0,0,2.0559,2.0564,2.0584,2.0585,2.0579,2.0597,2.0601,2.0604,2.0621,2.0624,2.0619,2.0621,2.0639,2.0641,2.0642,2.0636,2.0651,2.0652,2.0652,2.0643,2.0643,2.0642,0,0,0,0,0,0,2.0559,2.0561,2.0583,2.0575,2.0578,2.0597,2.0601,2.0604,2.0608,2.0625,2.0628,2.0619,2.064,2.0642,2.0642,2.0637,2.0652,2.0652,2.0644,2.0643,2.0642,2.062,0,0,0,0,0,0,2.0558,2.056,2.0557,2.0575,2.0579,2.0583,2.0601,2.0605,2.0609,2.0611,2.0626,2.0628,2.064,2.0642,2.0643,2.0637,2.0652,2.0644,2.0643,2.0643,2.0622,2.0619,2.0617,0,0,0,0,0,2.0557,2.0548,2.0557,2.0559,2.0575,2.0582,2.0584,2.06,2.0608,2.0606,2.0617,2.0628,2.0637,2.0642,2.0643,2.0637,2.0645,2.0644,2.0643,2.0623,2.062,2.0617,0,0,0,0,0,0,2.0526,2.055,2.056,2.0557,2.0568,2.0587,2.0583,2.0595,2.0602,2.0604,2.0621,2.0624,2.0624,2.0631,2.0635,2.0632,2.0643,2.0642,2.0627,2.0624,2.0622,2.062,2.0653,0,0,0,0,0,2.052,2.0524,2.0545,2.054,2.0545,2.0563,2.0567,2.0579,2.0589,2.0593,2.0605,2.0614,2.062,2.0622,2.0628,2.0623,2.0628,2.0621,2.0618,2.0616,2.0615,2.0616,2.0614,2.0639,2.0639,2.0639,0,0,2.0505,2.0519,2.052,2.0535,2.0544,2.0548,2.0567,2.0569,2.0573,2.0593,2.0596,2.0605,2.0616,2.0615,2.0615,2.0621,2.061,2.0615,2.0613,2.0613,2.0615,2.0613,2.0611,2.0638,2.0638,2.0639,0,0,2.0481,2.0492,2.0491,2.0501,2.0516,2.0529,2.0529,2.0547,2.0555,2.0558,2.0574,2.0578,2.0586,2.0596,2.0601,2.0586,2.0597,2.0587,2.0574,2.0575,2.0573,2.0571,2.0567,2.0566,2.0586,2.0586,2.0586,0,2.0461,2.0469,2.0488,2.0492,2.0498,2.052,2.052,2.0528,2.0544,2.0548,2.0555,2.0569,2.0578,2.0581,2.0578,2.0581,2.0582,2.0585,2.0572,2.057,2.0569,2.0566,2.0564,2.0585,2.0585,2.0585,2.0585,0,2.0444,2.045,2.0447,2.0465,2.0471,2.0472,2.0492,2.0497,2.0509,2.0521,2.0526,2.0538,2.0549,2.055,2.056,2.0556,2.0559,2.0569,2.058,2.0565,2.0562,2.0561,2.0583,2.0583,2.0584,2.0584,0,0,2.0399,2.0431,2.0429,2.0439,2.046,2.0464,2.0468,2.048,2.0484,2.0495,2.0499,2.0508,2.0519,2.0525,2.0537,2.0538,2.0528,2.0548,2.0548,2.0545,2.0526,2.0519,2.0517,2.0536,2.0536,2.0536,2.0525,0,2.0379,2.0388,2.0407,2.041,2.0417,2.0439,2.0443,2.0456,2.0468,2.0476,2.0489,2.0496,2.0508,2.0513,2.0515,2.0529,2.0524,2.053,2.054,2.054,2.0537,2.0515,2.0507,2.0496,2.0524,2.0524,2.0524,0,2.0357,2.037,2.0373,2.0397,2.0401,2.0403,2.0419,2.0425,2.0441,2.0451,2.0461,2.0475,2.0481,2.0492,2.0501,2.0504,2.051,2.0518,2.0518,2.0519,2.0531,2.0517,2.0493,2.0492,2.0522,2.0522,2.0522,0,2.0326,2.0344,2.0349,2.0357,2.0384,2.0386,2.0397,2.0414,2.0422,2.0435,2.044,2.0453,2.0459,2.0469,2.0487,2.0493,2.0495,2.0507,2.0503,2.0503,2.0501,2.0501,2.0479,2.0505,2.0505,2.0505,2.0505,0,2.0302,2.0303,2.0336,2.0339,2.0343,2.0366,2.0369,2.0382,2.0398,2.0405,2.0425,2.0431,2.0454,2.0463,2.0477,2.0484,2.0486,2.0494,2.0498,2.0493,2.0492,2.0496,2.0497,2.0504,2.0504,2.0504,2.0505,0,2.0267,2.0289,2.0297,2.0324,2.0331,2.0332,2.0355,2.036,2.0375,2.0384,2.0387,2.0411,2.0423,2.0442,2.0459,2.0469,2.0473,2.0479,2.0468,2.047,2.0466,2.0466,2.0446,2.0445,2.047,2.047,2.047,0,2.025,2.0253,2.0281,2.0288,2.03,2.031,2.0319,2.0343,2.0351,2.0373,2.0375,2.0389,2.0401,2.0419,2.0438,2.0451,2.0458,2.0451,2.046,2.0456,2.046,2.046,2.0461,2.0448,2.0447,2.0447,2.0447,0,2.0219,2.0231,2.0244,2.0261,2.0272,2.0286,2.0301,2.0306,2.0333,2.0342,2.0356,2.0366,2.0385,2.0399,2.0416,2.0428,2.0442,2.0444,2.0444,2.0439,2.0433,2.0438,2.0462,2.0444,2.0444,2.0444,2.0445,2.0445,2.0194,2.0199,2.022,2.0235,2.025,2.0264,2.0271,2.0289,2.0302,2.032,2.0334,2.0347,2.0367,2.0392,2.0403,2.0414,2.042,2.0419,2.042,2.0419,2.0418,2.0432,2.0417,2.0417,2.0417,2.0417,2.0417,0,2.0165,2.0181,2.0195,2.0217,2.0229,2.0244,2.0263,2.0272,2.0284,2.0301,2.0315,2.0332,2.0347,2.0368,2.0385,2.039,2.0397,2.0393,2.0393,2.0396,2.0411,2.041,2.0387,2.0387,2.0387,2.0387,2.0387,2.0387,2.0152,2.0161,2.0176,2.0194,2.021,2.0225,2.0235,2.0249,2.0264,2.0283,2.0296,2.0311,2.0331,2.035,2.0365,2.0371,2.0376,2.037,2.0378,2.0392,2.0394,2.0397,2.0396,2.0371,2.0371,2.0363,2.0363,2.0363]}]]